CZ-2D R/B, 36597

Orbit data source: Space-Track

CZ-2D R/B, 36597 is space debris in SSO originally from a launch on Tue, 15 Jun 2010 UTC launched from the Jiuquan Satellite Launch Center, China (JSC). Debris objects in space refer to the collection of defunct objects orbiting the Earth. Examples of debris include non-operational satellites, rocket bodies, and fragments generated from explosions, collisions, or faulty payload assembly.

Loading next visibility...
Identifier
36597, 2010-027B
Orbit
SSO
Country
Flag of CNCN / PRC
Related business
Manufacturer
BWYIC
Mission
Spacecraft
Bus & Motor
CZ-2 STAGE 2, Unknown motor
Mass
4,006 kg wet, 4,006 kg dry
Launch date (UTC)
2010-06-15 (16 years ago)
Launch vehicle
Unknown
Launch site
Jiuquan Satellite Launch Center, China (JSC)
Object type
Payload
Rocket body
Debris
Shape & HBR
Cyl, 4.0 m
Radar Cross Section
25.456 m², Large (>1 m²)

Expand to show TLE details & history
Last TLE update: 14 hours ago

TLE from 14 hours ago
0 CZ-2D R/B
1 36597U 10027B   26171.34701045  .00001442  00000-0  11021-3 0  9990
2 36597  97.9794 200.6488 0047618 269.3149  90.2619 15.02811699871358
Epoch: 2026-06-20T08:19Z
TLE epoch observation values (Epoch: 2026-06-20T08:19:41.702Z)
Latitude
-0.00003°
Longitude
167.1621°
Altitude
561.589 km
Speed
7.58 km/s
True Right ascension
13h 22m 35s
True Declination
0° 00' 00"
Sunlit
Object was in daylight at epoch
Visualization orbit readout
Latitude
Unknown
Longitude
Unknown
Altitude
Unknown
Speed
Unknown
Apparent Right ascension
Unknown
Apparent Declination
Unknown
Sunlit
N/A
Visualization observer readout
Local Sidereal Time
09:42:06
Azimuth
Unknown
Elevation
Unknown
Doppler factor
Unknown
Orbital elements
Apogee altitude
588.26 km
Perigee altitude
522.23 km
Semi-major axis
6,933.382 km
Eccentricity
0.00476
Inclination
97.9794°
RAAN
200.6488°
Arg. of periapsis
269.3149°
True anomaly
90.80753°
Mean anomaly
90.2619°
Eccentric anomaly
90.53472°
Mean motion
3.75946 °/min
Orbital period
95.76 mins
BSTAR
0.00011021
Loading maneuver chart data...
Computing Atmospheric mass density...
Loading historical data...
Loading historical data...
Loading historical data...
Loading historical data...
Loading historical data...
Loading historical data...
Loading historical data...

Documentation

Showing up to 5 results
|